| time (UTC) | temp F | wind direction | speed MPH | gust MPH | rain 1hr in | rain 24hr in | rain mn in | humidity % | barometer mb |
| 20260906152417 | 86 | 90 | 1.0 | 7.0 | 0.00 | 0.16 | 0.01 | 81 | 1013.1 |
| 20260906151913 | 85 | 355 | 1.0 | 6.0 | 0.00 | 0.16 | 0.01 | 80 | 1013.1 |
| 20260906151644 | 85 | 65 | 0.0 | 0.0 | 0.00 | 0.16 | 0.01 | 77 | 1013.1 |
| 20260906150914 | 85 | 66 | 0.0 | 0.0 | 0.00 | 0.16 | 0.01 | 78 | 1013.1 |
| 20260906150412 | 84 | 66 | 0.0 | 0.0 | 0.00 | 0.16 | 0.01 | 79 | 1013.1 |
| 20260906145909 | 84 | 66 | 0.0 | 0.0 | 0.00 | 0.16 | 0.01 | 78 | 1013.1 |
| 20260906145407 | 84 | 41 | 0.0 | 0.0 | 0.00 | 0.16 | 0.01 | 81 | 1013.1 |
| 20260906144908 | 83 | 41 | 0.0 | 0.0 | 0.00 | 0.16 | 0.01 | 85 | 1013.1 |
| 20260906143905 | 82 | 41 | 0.0 | 0.0 | 0.00 | 0.16 | 0.01 | 87 | 1013.0 |
| 20260906143404 | 82 | 45 | 0.0 | 0.0 | 0.00 | 0.16 | 0.01 | 90 | 1013.0 |
| 20260906142904 | 81 | 44 | 0.0 | 0.0 | 0.00 | 0.16 | 0.01 | 89 | 1013.0 |
| 20260906142358 | 81 | 44 | 0.0 | 0.0 | 0.00 | 0.16 | 0.01 | 91 | 1013.0 |
| 20260906141851 | 80 | 44 | 0.0 | 0.0 | 0.00 | 0.16 | 0.01 | 92 | 1013.1 |
| 20260906141345 | 80 | 44 | 0.0 | 0.0 | 0.00 | 0.16 | 0.01 | 94 | 1013.1 |
| 20260906140839 | 79 | 248 | 0.0 | 0.0 | 0.00 | 0.16 | 0.01 | 95 | 1013.1 |
| 20260906140333 | 78 | 248 | 0.0 | 0.0 | 0.00 | 0.16 | 0.01 | 96 | 1013.1 |
| 20260906135827 | 78 | 248 | 0.0 | 0.0 | 0.00 | 0.16 | 0.01 | 97 | 1013.1 |
| 20260906135322 | 77 | 248 | 0.0 | 0.0 | 0.00 | 0.16 | 0.01 | 98 | 1013.2 |
| 20260906134816 | 77 | 248 | 0.0 | 0.0 | 0.00 | 0.16 | 0.01 | 98 | 1013.1 |
| 20260906134310 | 77 | 248 | 0.0 | 0.0 | 0.00 | 0.16 | 0.01 | 99 | 1013.1 |
| 20260906134034 | 76 | 248 | 0.0 | 0.0 | 0.00 | 0.16 | 0.01 | 100 | 1013.0 |
| 20260906133257 | 76 | 248 | 0.0 | 0.0 | 0.00 | 0.16 | 0.01 | 100 | 1013.0 |
| 20260906132751 | 76 | 248 | 0.0 | 0.0 | 0.00 | 0.16 | 0.01 | 100 | 1013.1 |
| 20260906132245 | 75 | 248 | 0.0 | 0.0 | 0.00 | 0.16 | 0.01 | 100 | 1013.1 |
| 20260906131739 | 74 | 248 | 0.0 | 0.0 | 0.00 | 0.16 | 0.01 | 100 | 1013.2 |
| 20260906131506 | 74 | 248 | 0.0 | 0.0 | 0.00 | 0.16 | 0.01 | 100 | 1013.1 |
| 20260906130727 | 74 | 241 | 0.0 | 0.0 | 0.00 | 0.16 | 0.01 | 100 | 1013.0 |
| 20260906130221 | 74 | 241 | 0.0 | 0.0 | 0.00 | 0.16 | 0.01 | 100 | 1013.0 |
| 20260906125716 | 73 | 241 | 0.0 | 0.0 | 0.00 | 0.16 | 0.01 | 100 | 1012.9 |
| 20260906125210 | 72 | 241 | 0.0 | 0.0 | 0.00 | 0.16 | 0.01 | 100 | 1012.8 |
| 20260906124704 | 72 | 241 | 0.0 | 0.0 | 0.00 | 0.16 | 0.01 | 100 | 1012.8 |
| 20260906124158 | 71 | 241 | 0.0 | 0.0 | 0.00 | 0.16 | 0.01 | 100 | 1012.8 |
| 20260906123652 | 71 | 241 | 0.0 | 0.0 | 0.00 | 0.16 | 0.01 | 100 | 1012.8 |
| 20260906123416 | 71 | 241 | 0.0 | 0.0 | 0.00 | 0.16 | 0.01 | 100 | 1012.7 |
| 20260906122640 | 70 | 241 | 0.0 | 0.0 | 0.00 | 0.16 | 0.01 | 100 | 1012.6 |
| 20260906122134 | 69 | 11 | 0.0 | 0.0 | 0.00 | 0.16 | 0.01 | 100 | 1012.5 |
| 20260906121859 | 68 | 11 | 0.0 | 0.0 | 0.00 | 0.16 | 0.01 | 100 | 1012.5 |
| 20260906121355 | 68 | 11 | 0.0 | 0.0 | 0.00 | 0.16 | 0.01 | 100 | 1012.3 |
| 20260906120615 | 68 | 11 | 0.0 | 0.0 | 0.00 | 0.16 | 0.01 | 100 | 1012.3 |
| 20260906120110 | 67 | 11 | 0.0 | 0.0 | 0.00 | 0.16 | 0.01 | 100 | 1012.3 |
| 20260906115834 | 67 | 11 | 0.0 | 0.0 | 0.00 | 0.16 | 0.01 | 100 | 1012.3 |
| 20260906115057 | 67 | 11 | 0.0 | 0.0 | 0.00 | 0.16 | 0.01 | 100 | 1012.2 |
| 20260906114552 | 67 | 11 | 0.0 | 0.0 | 0.00 | 0.16 | 0.01 | 100 | 1012.2 |
| 20260906114318 | 67 | 11 | 0.0 | 0.0 | 0.00 | 0.16 | 0.01 | 100 | 1012.1 |
| 20260906113541 | 67 | 11 | 0.0 | 0.0 | 0.00 | 0.16 | 0.01 | 100 | 1012.1 |
| 20260906113034 | 67 | 11 | 0.0 | 0.0 | 0.00 | 0.16 | 0.01 | 100 | 1012.1 |
| 20260906112527 | 67 | 11 | 0.0 | 0.0 | 0.00 | 0.16 | 0.01 | 100 | 1012.1 |
| 20260906112252 | 67 | 11 | 0.0 | 0.0 | 0.00 | 0.16 | 0.01 | 100 | 1012.1 |
| 20260906111515 | 67 | 11 | 0.0 | 0.0 | 0.00 | 0.16 | 0.01 | 100 | 1011.9 |
| 20260906111015 | 67 | 11 | 0.0 | 0.0 | 0.00 | 0.16 | 0.01 | 100 | 1011.9 |
| 20260906110516 | 67 | 11 | 0.0 | 0.0 | 0.00 | 0.16 | 0.01 | 100 | 1012.1 |
| 20260906110016 | 67 | 11 | 0.0 | 0.0 | 0.00 | 0.16 | 0.01 | 100 | 1011.9 |
| 20260906105515 | 67 | 11 | 0.0 | 0.0 | 0.00 | 0.16 | 0.01 | 100 | 1012.1 |
| 20260906105015 | 67 | 11 | 0.0 | 0.0 | 0.00 | 0.16 | 0.01 | 100 | 1011.9 |
| 20260906104513 | 67 | 11 | 0.0 | 0.0 | 0.00 | 0.16 | 0.01 | 100 | 1011.9 |
| 20260906104245 | 67 | 11 | 0.0 | 0.0 | 0.00 | 0.16 | 0.01 | 100 | 1011.8 |
| 20260906103516 | 67 | 11 | 0.0 | 0.0 | 0.00 | 0.16 | 0.01 | 100 | 1011.7 |
| 20260906103012 | 67 | 11 | 0.0 | 0.0 | 0.00 | 0.16 | 0.01 | 100 | 1011.7 |
| 20260906102514 | 67 | 11 | 0.0 | 0.0 | 0.00 | 0.16 | 0.01 | 100 | 1011.7 |
| 20260906102012 | 67 | 11 | 0.0 | 0.0 | 0.00 | 0.16 | 0.01 | 100 | 1011.6 |
| 20260906101509 | 67 | 11 | 0.0 | 0.0 | 0.00 | 0.16 | 0.01 | 100 | 1011.5 |
| 20260906101008 | 67 | 11 | 0.0 | 0.0 | 0.00 | 0.16 | 0.01 | 100 | 1011.4 |
| 20260906100505 | 67 | 11 | 0.0 | 0.0 | 0.00 | 0.16 | 0.01 | 100 | 1011.4 |
| 20260906100006 | 67 | 11 | 0.0 | 0.0 | 0.00 | 0.16 | 0.01 | 100 | 1011.4 |
| 20260906095506 | 67 | 11 | 0.0 | 0.0 | 0.00 | 0.16 | 0.01 | 100 | 1011.4 |
| 20260906095006 | 67 | 11 | 0.0 | 0.0 | 0.00 | 0.16 | 0.01 | 100 | 1011.5 |
| 20260906094504 | 67 | 11 | 0.0 | 0.0 | 0.00 | 0.16 | 0.01 | 100 | 1011.5 |
| 20260906094006 | 68 | 11 | 0.0 | 0.0 | 0.00 | 0.16 | 0.01 | 100 | 1011.6 |
| 20260906093505 | 68 | 11 | 0.0 | 0.0 | 0.00 | 0.16 | 0.01 | 100 | 1011.5 |
| 20260906093005 | 68 | 11 | 0.0 | 0.0 | 0.00 | 0.16 | 0.01 | 100 | 1011.6 |
| 20260906092506 | 68 | 11 | 0.0 | 0.0 | 0.00 | 0.16 | 0.01 | 100 | 1011.5 |
| 20260906092005 | 68 | 11 | 0.0 | 0.0 | 0.00 | 0.16 | 0.01 | 100 | 1011.5 |
| 20260906091506 | 68 | 11 | 0.0 | 0.0 | 0.00 | 0.16 | 0.01 | 100 | 1011.5 |
| 20260906091236 | 68 | 11 | 0.0 | 0.0 | 0.00 | 0.16 | 0.01 | 100 | 1011.5 |
| 20260906090504 | 67 | 11 | 0.0 | 0.0 | 0.00 | 0.16 | 0.01 | 100 | 1011.6 |
| 20260906090006 | 68 | 11 | 0.0 | 0.0 | 0.00 | 0.16 | 0.01 | 100 | 1011.6 |
| 20260906085505 | 68 | 11 | 0.0 | 0.0 | 0.00 | 0.16 | 0.01 | 100 | 1011.5 |
| 20260906085004 | 68 | 11 | 0.0 | 0.0 | 0.00 | 0.16 | 0.01 | 100 | 1011.5 |
| 20260906084504 | 68 | 11 | 0.0 | 0.0 | 0.00 | 0.16 | 0.01 | 100 | 1011.5 |
| 20260906084005 | 68 | 11 | 0.0 | 0.0 | 0.00 | 0.16 | 0.01 | 100 | 1011.5 |
| 20260906083504 | 68 | 11 | 0.0 | 0.0 | 0.00 | 0.16 | 0.01 | 100 | 1011.4 |
| 20260906083005 | 68 | 11 | 0.0 | 0.0 | 0.00 | 0.16 | 0.01 | 100 | 1011.4 |
| 20260906082502 | 68 | 11 | 0.0 | 0.0 | 0.00 | 0.16 | 0.01 | 100 | 1011.4 |
| 20260906082001 | 68 | 11 | 0.0 | 0.0 | 0.00 | 0.16 | 0.01 | 100 | 1011.4 |
| 20260906081500 | 68 | 11 | 0.0 | 0.0 | 0.00 | 0.16 | 0.01 | 100 | 1011.5 |
| 20260906080955 | 68 | 11 | 0.0 | 0.0 | 0.00 | 0.16 | 0.01 | 100 | 1011.4 |
| 20260906080449 | 68 | 11 | 0.0 | 0.0 | 0.00 | 0.16 | 0.01 | 100 | 1011.3 |
| 20260906080214 | 68 | 11 | 0.0 | 0.0 | 0.00 | 0.16 | 0.01 | 100 | 1011.2 |
| 20260906075437 | 68 | 11 | 0.0 | 0.0 | 0.00 | 0.16 | 0.01 | 100 | 1011.2 |
| 20260906074931 | 68 | 11 | 0.0 | 0.0 | 0.00 | 0.16 | 0.01 | 100 | 1011.1 |
| 20260906074426 | 68 | 11 | 0.0 | 0.0 | 0.00 | 0.16 | 0.01 | 100 | 1011.2 |
| 20260906074150 | 69 | 11 | 0.0 | 0.0 | 0.00 | 0.16 | 0.01 | 100 | 1011.3 |
| 20260906073413 | 69 | 11 | 0.0 | 0.0 | 0.00 | 0.16 | 0.01 | 100 | 1011.2 |
| 20260906072908 | 68 | 11 | 0.0 | 0.0 | 0.00 | 0.16 | 0.01 | 100 | 1011.2 |
| 20260906072401 | 69 | 11 | 0.0 | 0.0 | 0.00 | 0.16 | 0.01 | 100 | 1011.2 |
| 20260906071855 | 69 | 11 | 0.0 | 0.0 | 0.00 | 0.16 | 0.01 | 100 | 1011.3 |
| 20260906071349 | 69 | 11 | 0.0 | 0.0 | 0.00 | 0.16 | 0.01 | 100 | 1011.3 |
| 20260906071114 | 69 | 11 | 0.0 | 0.0 | 0.00 | 0.16 | 0.01 | 100 | 1011.2 |
| 20260906070337 | 69 | 11 | 0.0 | 0.0 | 0.00 | 0.16 | 0.01 | 100 | 1011.4 |
| 20260906065831 | 70 | 11 | 0.0 | 0.0 | 0.00 | 0.16 | 0.01 | 100 | 1011.4 |
| 20260906065323 | 70 | 11 | 0.0 | 0.0 | 0.00 | 0.16 | 0.01 | 100 | 1011.4 |
| 20260906065049 | 70 | 11 | 0.0 | 0.0 | 0.00 | 0.16 | 0.01 | 100 | 1011.3 |
| 20260906064311 | 70 | 11 | 0.0 | 0.0 | 0.00 | 0.16 | 0.01 | 100 | 1011.4 |
| 20260906063805 | 70 | 11 | 0.0 | 0.0 | 0.00 | 0.16 | 0.01 | 100 | 1011.4 |
| 20260906063259 | 70 | 11 | 0.0 | 0.0 | 0.00 | 0.16 | 0.01 | 100 | 1011.5 |
| 20260906063024 | 70 | 11 | 0.0 | 0.0 | 0.00 | 0.16 | 0.01 | 100 | 1011.5 |
| 20260906062247 | 70 | 11 | 0.0 | 0.0 | 0.00 | 0.16 | 0.01 | 100 | 1011.5 |
| 20260906062012 | 71 | 11 | 0.0 | 0.0 | 0.00 | 0.16 | 0.01 | 100 | 1011.7 |
| 20260906061235 | 70 | 11 | 0.0 | 0.0 | 0.00 | 0.16 | 0.01 | 100 | 1011.8 |
| 20260906061000 | 71 | 11 | 0.0 | 0.0 | 0.00 | 0.16 | 0.01 | 100 | 1011.7 |
| 20260906060224 | 70 | 11 | 0.0 | 0.0 | 0.00 | 0.16 | 0.01 | 100 | 1011.8 |
| 20260906055718 | 70 | 11 | 0.0 | 0.0 | 0.00 | 0.16 | 0.01 | 100 | 1011.9 |
| 20260906055212 | 70 | 11 | 0.0 | 0.0 | 0.00 | 0.16 | 0.01 | 100 | 1011.9 |
| 20260906054705 | 70 | 11 | 0.0 | 0.0 | 0.00 | 0.16 | 0.01 | 100 | 1011.9 |
| 20260906054159 | 70 | 11 | 0.0 | 0.0 | 0.00 | 0.16 | 0.01 | 100 | 1012.1 |
| 20260906053653 | 70 | 11 | 0.0 | 0.0 | 0.00 | 0.16 | 0.01 | 100 | 1012.1 |
| 20260906053147 | 71 | 11 | 0.0 | 0.0 | 0.01 | 0.16 | 0.01 | 100 | 1012.2 |
| 20260906052914 | 71 | 11 | 0.0 | 0.0 | 0.01 | 0.16 | 0.01 | 100 | 1012.3 |
| 20260906052135 | 71 | 11 | 0.0 | 0.0 | 0.01 | 0.16 | 0.01 | 100 | 1012.3 |
| 20260906051900 | 71 | 11 | 0.0 | 0.0 | 0.01 | 0.16 | 0.01 | 100 | 1012.3 |
| 20260906051123 | 70 | 11 | 0.0 | 0.0 | 0.01 | 0.16 | 0.01 | 100 | 1012.2 |
| 20260906050618 | 70 | 11 | 0.0 | 0.0 | 0.01 | 0.16 | 0.01 | 100 | 1012.2 |
| 20260906050111 | 70 | 11 | 0.0 | 0.0 | 0.01 | 0.16 | 0.01 | 100 | 1012.2 |
| 20260906045605 | 70 | 11 | 0.0 | 0.0 | 0.01 | 0.16 | 0.01 | 100 | 1012.3 |
| 20260906045059 | 70 | 11 | 0.0 | 0.0 | 0.01 | 0.16 | 0.01 | 100 | 1012.4 |
| 20260906044553 | 70 | 11 | 0.0 | 0.0 | 0.01 | 0.16 | 0.01 | 99 | 1012.4 |
| 20260906044049 | 71 | 11 | 0.0 | 0.0 | 0.01 | 0.16 | 0.01 | 100 | 1012.4 |
| 20260906043542 | 71 | 11 | 0.0 | 0.0 | 0.00 | 0.15 | 0.01 | 100 | 1012.4 |
| 20260906043035 | 71 | 11 | 0.0 | 0.0 | 0.00 | 0.15 | 0.00 | 100 | 1012.4 |
| 20260906042529 | 71 | 11 | 0.0 | 0.0 | 0.00 | 0.15 | 0.00 | 100 | 1012.4 |
| 20260906042023 | 71 | 11 | 0.0 | 0.0 | 0.00 | 0.15 | 0.00 | 100 | 1012.3 |
| 20260906041518 | 71 | 11 | 0.0 | 0.0 | 0.00 | 0.15 | 0.00 | 100 | 1012.4 |
| 20260906041242 | 71 | 11 | 0.0 | 0.0 | 0.00 | 0.15 | 0.00 | 100 | 1012.4 |
| 20260906040737 | 72 | 11 | 0.0 | 0.0 | 0.00 | 0.15 | 0.00 | 100 | 1012.6 |
| 20260906040004 | 72 | 11 | 0.0 | 0.0 | 0.00 | 0.15 | 0.00 | 100 | 1012.7 |
| 20260906035501 | 71 | 11 | 0.0 | 0.0 | 0.00 | 0.15 | 0.15 | 100 | 1012.6 |
| 20260906035001 | 71 | 11 | 0.0 | 0.0 | 0.00 | 0.15 | 0.15 | 100 | 1012.8 |
| 20260906034502 | 71 | 11 | 0.0 | 0.0 | 0.00 | 0.15 | 0.15 | 100 | 1012.9 |
| 20260906033958 | 71 | 11 | 0.0 | 0.0 | 0.00 | 0.15 | 0.15 | 100 | 1012.9 |
| 20260906033457 | 71 | 11 | 0.0 | 0.0 | 0.00 | 0.15 | 0.15 | 100 | 1012.8 |
| 20260906033229 | 72 | 11 | 0.0 | 0.0 | 0.00 | 0.15 | 0.15 | 100 | 1012.8 |
| 20260906031955 | 72 | 11 | 0.0 | 0.0 | 0.00 | 0.15 | 0.15 | 100 | 1012.9 |
| 20260906031453 | 72 | 11 | 0.0 | 0.0 | 0.00 | 0.15 | 0.15 | 100 | 1013.0 |
| 20260906030951 | 73 | 11 | 0.0 | 0.0 | 0.00 | 0.15 | 0.15 | 100 | 1012.9 |
| 20260906030449 | 73 | 11 | 0.0 | 0.0 | 0.00 | 0.15 | 0.15 | 100 | 1012.9 |
| 20260906030217 | 73 | 11 | 0.0 | 0.0 | 0.00 | 0.15 | 0.15 | 100 | 1013.1 |
| 20260906025448 | 72 | 11 | 0.0 | 0.0 | 0.00 | 0.15 | 0.15 | 99 | 1012.9 |
| 20260906024946 | 73 | 11 | 0.0 | 0.0 | 0.00 | 0.15 | 0.15 | 100 | 1012.9 |
| 20260906024444 | 73 | 11 | 0.0 | 0.0 | 0.00 | 0.15 | 0.15 | 100 | 1012.9 |
| 20260906023943 | 72 | 11 | 0.0 | 0.0 | 0.00 | 0.15 | 0.15 | 100 | 1012.8 |
| 20260906023441 | 72 | 11 | 0.0 | 0.0 | 0.00 | 0.15 | 0.15 | 99 | 1012.5 |
| 20260906022438 | 72 | 11 | 0.0 | 0.0 | 0.00 | 0.15 | 0.15 | 99 | 1012.4 |
| 20260906021938 | 72 | 11 | 0.0 | 0.0 | 0.00 | 0.15 | 0.15 | 99 | 1012.2 |
| 20260906021436 | 73 | 11 | 0.0 | 0.0 | 0.00 | 0.15 | 0.15 | 100 | 1012.1 |
| 20260906020937 | 73 | 11 | 0.0 | 0.0 | 0.00 | 0.15 | 0.15 | 99 | 1012.2 |
| 20260906020437 | 73 | 11 | 0.0 | 0.0 | 0.00 | 0.15 | 0.15 | 99 | 1012.2 |
| 20260906015936 | 73 | 11 | 0.0 | 0.0 | 0.00 | 0.15 | 0.15 | 99 | 1012.3 |
| 20260906015438 | 73 | 11 | 0.0 | 0.0 | 0.00 | 0.15 | 0.15 | 99 | 1012.3 |
| 20260906014936 | 73 | 11 | 0.0 | 0.0 | 0.00 | 0.15 | 0.15 | 99 | 1012.2 |
| 20260906014438 | 73 | 11 | 0.0 | 0.0 | 0.00 | 0.15 | 0.15 | 99 | 1012.3 |
| 20260906013937 | 74 | 11 | 0.0 | 0.0 | 0.00 | 0.15 | 0.15 | 99 | 1012.3 |
| 20260906013438 | 74 | 11 | 0.0 | 0.0 | 0.00 | 0.15 | 0.15 | 99 | 1012.1 |
| 20260906012938 | 74 | 11 | 0.0 | 0.0 | 0.00 | 0.15 | 0.15 | 98 | 1012.1 |
| 20260906012709 | 74 | 11 | 0.0 | 0.0 | 0.00 | 0.15 | 0.15 | 99 | 1012.1 |
| 20260906011936 | 74 | 11 | 0.0 | 0.0 | 0.00 | 0.15 | 0.15 | 99 | 1011.9 |
| 20260906011437 | 74 | 11 | 0.0 | 0.0 | 0.00 | 0.15 | 0.15 | 99 | 1011.8 |
| 20260906010936 | 74 | 11 | 0.0 | 0.0 | 0.00 | 0.15 | 0.15 | 98 | 1011.8 |
| 20260906010436 | 74 | 11 | 0.0 | 0.0 | 0.00 | 0.15 | 0.15 | 98 | 1011.6 |
| 20260906005938 | 74 | 11 | 0.0 | 0.0 | 0.00 | 0.15 | 0.15 | 98 | 1011.6 |
| 20260906005430 | 74 | 11 | 0.0 | 0.0 | 0.00 | 0.15 | 0.15 | 98 | 1011.7 |
| 20260906004925 | 74 | 11 | 0.0 | 0.0 | 0.00 | 0.15 | 0.15 | 98 | 1011.6 |
| 20260906004419 | 75 | 11 | 0.0 | 0.0 | 0.00 | 0.15 | 0.15 | 97 | 1011.6 |
| 20260906003912 | 75 | 11 | 0.0 | 0.0 | 0.00 | 0.15 | 0.15 | 97 | 1011.7 |
| 20260906003407 | 75 | 11 | 0.0 | 0.0 | 0.00 | 0.15 | 0.15 | 97 | 1011.8 |
| 20260906002901 | 76 | 11 | 0.0 | 0.0 | 0.00 | 0.15 | 0.15 | 97 | 1011.8 |
| 20260906002355 | 76 | 11 | 0.0 | 0.0 | 0.00 | 0.15 | 0.15 | 96 | 1011.6 |
| 20260906001849 | 76 | 11 | 0.0 | 0.0 | 0.00 | 0.15 | 0.15 | 96 | 1011.6 |
| 20260906001343 | 76 | 11 | 0.0 | 0.0 | 0.00 | 0.15 | 0.15 | 96 | 1011.5 |
| 20260906000837 | 76 | 11 | 0.0 | 0.0 | 0.00 | 0.15 | 0.15 | 96 | 1011.5 |
| 20260906000333 | 77 | 11 | 0.0 | 0.0 | 0.00 | 0.15 | 0.15 | 95 | 1011.4 |
| 20260905235825 | 77 | 11 | 0.0 | 0.0 | 0.00 | 0.15 | 0.15 | 95 | 1011.4 |
| 20260905235551 | 77 | 11 | 0.0 | 0.0 | 0.00 | 0.15 | 0.15 | 94 | 1011.2 |
| 20260905234813 | 78 | 11 | 0.0 | 0.0 | 0.00 | 0.15 | 0.15 | 93 | 1011.1 |
| 20260905234307 | 78 | 11 | 0.0 | 0.0 | 0.00 | 0.15 | 0.15 | 94 | 1010.9 |
| 20260905233801 | 78 | 11 | 0.0 | 0.0 | 0.00 | 0.15 | 0.15 | 92 | 1011.0 |
| 20260905233254 | 79 | 11 | 0.0 | 0.0 | 0.00 | 0.15 | 0.15 | 93 | 1011.0 |
| 20260905232749 | 79 | 13 | 0.0 | 0.0 | 0.00 | 0.15 | 0.15 | 92 | 1011.0 |
| 20260905232242 | 79 | 13 | 0.0 | 0.0 | 0.00 | 0.15 | 0.15 | 91 | 1011.0 |
| 20260905231737 | 80 | 13 | 0.0 | 0.0 | 0.00 | 0.15 | 0.15 | 91 | 1011.0 |
| 20260905231231 | 80 | 13 | 0.0 | 0.0 | 0.00 | 0.15 | 0.15 | 91 | 1010.9 |
| 20260905230724 | 80 | 296 | 0.0 | 0.0 | 0.00 | 0.15 | 0.15 | 91 | 1010.7 |
| 20260905230218 | 81 | 296 | 0.0 | 0.0 | 0.00 | 0.15 | 0.15 | 90 | 1010.7 |
| 20260905225712 | 81 | 246 | 1.0 | 4.0 | 0.00 | 0.15 | 0.15 | 87 | 1010.8 |
| 20260905225207 | 81 | 246 | 1.0 | 4.0 | 0.00 | 0.15 | 0.15 | 83 | 1010.9 |
| 20260905224701 | 82 | 70 | 0.0 | 0.0 | 0.00 | 0.15 | 0.15 | 87 | 1010.9 |
| 20260905224156 | 83 | 197 | 0.0 | 0.0 | 0.00 | 0.15 | 0.15 | 86 | 1010.9 |
| 20260905223654 | 83 | 197 | 0.0 | 0.0 | 0.00 | 0.15 | 0.15 | 85 | 1010.9 |
| 20260905223143 | 83 | 197 | 0.0 | 0.0 | 0.00 | 0.15 | 0.15 | 84 | 1010.9 |
| 20260905222637 | 83 | 197 | 0.0 | 0.0 | 0.00 | 0.15 | 0.15 | 85 | 1010.9 |
| 20260905222130 | 82 | 197 | 0.0 | 0.0 | 0.00 | 0.15 | 0.15 | 85 | 1010.9 |
| 20260905221625 | 82 | 197 | 0.0 | 0.0 | 0.00 | 0.15 | 0.15 | 89 | 1010.9 |
| 20260905221349 | 81 | 197 | 0.0 | 0.0 | 0.00 | 0.15 | 0.15 | 89 | 1011.0 |
| 20260905220613 | 81 | 197 | 0.0 | 0.0 | 0.00 | 0.15 | 0.15 | 90 | 1011.0 |
| 20260905220107 | 81 | 197 | 0.0 | 0.0 | 0.00 | 0.15 | 0.15 | 90 | 1011.2 |
| 20260905215601 | 81 | 197 | 0.0 | 0.0 | 0.00 | 0.15 | 0.15 | 91 | 1011.1 |
| 20260905215055 | 81 | 171 | 0.0 | 0.0 | 0.00 | 0.15 | 0.15 | 91 | 1011.1 |
| 20260905214549 | 80 | 182 | 0.0 | 0.0 | 0.00 | 0.15 | 0.15 | 90 | 1011.1 |
| 20260905214043 | 80 | 191 | 0.0 | 0.0 | 0.00 | 0.15 | 0.15 | 89 | 1011.3 |
| 20260905213537 | 80 | 191 | 0.0 | 0.0 | 0.00 | 0.15 | 0.15 | 90 | 1011.4 |
| 20260905213303 | 80 | 191 | 0.0 | 0.0 | 0.00 | 0.15 | 0.15 | 90 | 1011.4 |
| 20260905212525 | 80 | 191 | 0.0 | 0.0 | 0.00 | 0.15 | 0.15 | 90 | 1011.6 |
| 20260905212019 | 80 | 189 | 0.0 | 1.0 | 0.00 | 0.15 | 0.15 | 90 | 1011.7 |
| 20260905211513 | 80 | 255 | 0.0 | 1.0 | 0.00 | 0.15 | 0.15 | 91 | 1011.8 |
| 20260905211007 | 80 | 289 | 0.0 | 0.0 | 0.00 | 0.15 | 0.15 | 91 | 1011.7 |
| 20260905210501 | 80 | 292 | 0.0 | 0.0 | 0.00 | 0.15 | 0.15 | 90 | 1011.8 |
| 20260905205955 | 80 | 292 | 0.0 | 0.0 | 0.00 | 0.15 | 0.15 | 92 | 1011.7 |
| 20260905205719 | 80 | 121 | 0.0 | 0.0 | 0.00 | 0.15 | 0.15 | 91 | 1011.8 |
| 20260905205215 | 80 | 121 | 0.0 | 0.0 | 0.00 | 0.15 | 0.15 | 89 | 1011.9 |
| 20260905204437 | 80 | 113 | 0.0 | 0.0 | 0.00 | 0.15 | 0.15 | 89 | 1011.9 |
| 20260905203930 | 79 | 44 | 0.0 | 0.0 | 0.00 | 0.15 | 0.15 | 88 | 1012.2 |
| 20260905203425 | 79 | 44 | 0.0 | 0.0 | 0.00 | 0.15 | 0.15 | 90 | 1012.2 |
| 20260905202919 | 79 | 44 | 0.0 | 0.0 | 0.00 | 0.15 | 0.15 | 89 | 1012.3 |
| 20260905202413 | 79 | 44 | 0.0 | 0.0 | 0.00 | 0.15 | 0.15 | 92 | 1012.4 |
| 20260905201912 | 78 | 44 | 0.0 | 0.0 | 0.00 | 0.15 | 0.15 | 90 | 1012.4 |
| 20260905201413 | 78 | 44 | 0.0 | 0.0 | 0.00 | 0.15 | 0.15 | 92 | 1012.4 |
| 20260905200914 | 77 | 44 | 0.0 | 3.0 | 0.00 | 0.15 | 0.15 | 92 | 1012.6 |
| 20260905200411 | 77 | 44 | 1.0 | 5.0 | 0.00 | 0.15 | 0.15 | 94 | 1012.5 |
| 20260905195910 | 76 | 346 | 1.0 | 6.0 | 0.00 | 0.15 | 0.15 | 95 | 1012.4 |
| 20260905195409 | 76 | 294 | 1.0 | 6.0 | 0.01 | 0.15 | 0.15 | 94 | 1012.2 |
| 20260905194907 | 75 | 9 | 2.0 | 8.0 | 0.04 | 0.15 | 0.15 | 95 | 1012.4 |
| 20260905194407 | 75 | 331 | 1.0 | 8.0 | 0.07 | 0.15 | 0.15 | 97 | 1012.5 |
| 20260905193905 | 74 | 48 | 1.0 | 6.0 | 0.11 | 0.15 | 0.15 | 96 | 1012.2 |
| 20260905193639 | 73 | 293 | 1.0 | 7.0 | 0.12 | 0.15 | 0.15 | 97 | 1012.2 |
| 20260905192907 | 73 | 252 | 0.0 | 7.0 | 0.15 | 0.15 | 0.15 | 97 | 1012.3 |
| 20260905192407 | 73 | 231 | 0.0 | 3.0 | 0.15 | 0.15 | 0.15 | 97 | 1012.4 |
| 20260905191906 | 72 | 263 | 0.0 | 2.0 | 0.15 | 0.15 | 0.15 | 97 | 1012.3 |
| 20260905191639 | 72 | 5 | 0.0 | 2.0 | 0.15 | 0.15 | 0.15 | 96 | 1012.3 |
| 20260905190904 | 72 | 69 | 0.0 | 2.0 | 0.15 | 0.15 | 0.15 | 95 | 1012.1 |
| 20260905190402 | 72 | 195 | 0.0 | 5.0 | 0.15 | 0.15 | 0.15 | 94 | 1012.4 |
| 20260905185902 | 72 | 195 | 2.0 | 12.0 | 0.15 | 0.15 | 0.15 | 93 | 1012.9 |
| 20260905185359 | 73 | 302 | 4.0 | 17.0 | 0.14 | 0.14 | 0.14 | 92 | 1013.7 |
| 20260905184400 | 75 | 336 | 9.0 | 24.0 | 0.08 | 0.08 | 0.08 | 88 | 1014.5 |
| 20260905183900 | 78 | 341 | 8.0 | 24.0 | 0.04 | 0.04 | 0.05 | 85 | 1014.4 |
| 20260905183400 | 82 | 13 | 4.0 | 20.0 | 0.03 | 0.03 | 0.03 | 81 | 1013.8 |
| 20260905182902 | 86 | 344 | 0.0 | 7.0 | 0.00 | 0.00 | 0.01 | 83 | 1013.4 |
| 20260905182403 | 87 | 295 | 0.0 | 0.0 | 0.00 | 0.00 | 0.00 | 84 | 1012.8 |
| 20260905181903 | 88 | 295 | 0.0 | 0.0 | 0.00 | 0.00 | 0.00 | 81 | 1012.2 |
| 20260905181404 | 89 | 295 | 0.0 | 0.0 | 0.00 | 0.00 | 0.00 | 77 | 1011.6 |
| 20260905180900 | 90 | 295 | 0.0 | 0.0 | 0.00 | 0.00 | 0.00 | 77 | 1011.7 |
| 20260905180402 | 91 | 295 | 0.0 | 0.0 | 0.00 | 0.00 | 0.00 | 73 | 1012.1 |
| 20260905175900 | 91 | 295 | 0.0 | 0.0 | 0.00 | 0.00 | 0.00 | 70 | 1012.4 |
| 20260905175630 | 92 | 295 | 0.0 | 1.0 | 0.00 | 0.00 | 0.00 | 70 | 1012.4 |
| 20260905174859 | 93 | 294 | 0.0 | 3.0 | 0.00 | 0.00 | 0.00 | 64 | 1012.4 |
| 20260905174400 | 93 | 287 | 0.0 | 3.0 | 0.00 | 0.00 | 0.00 | 62 | 1012.4 |
| 20260905173900 | 94 | 244 | 0.0 | 0.0 | 0.00 | 0.00 | 0.00 | 61 | 1012.5 |
| 20260905173630 | 94 | 244 | 0.0 | 0.0 | 0.00 | 0.00 | 0.00 | 59 | 1012.6 |
| 20260905172858 | 94 | 244 | 0.0 | 2.0 | 0.00 | 0.00 | 0.00 | 59 | 1012.7 |
| 20260905172623 | 93 | 244 | 0.0 | 2.0 | 0.00 | 0.00 | 0.00 | 60 | 1012.7 |
| 20260905171846 | 93 | 244 | 0.0 | 2.0 | 0.00 | 0.00 | 0.00 | 61 | 1012.9 |
| 20260905171612 | 93 | 244 | 0.0 | 2.0 | 0.00 | 0.00 | 0.00 | 61 | 1012.8 |
| 20260905170834 | 93 | 157 | 0.0 | 0.0 | 0.00 | 0.00 | 0.00 | 67 | 1012.8 |
| 20260905170328 | 93 | 156 | 0.0 | 1.0 | 0.00 | 0.00 | 0.00 | 62 | 1013.0 |
| 20260905165822 | 93 | 155 | 0.0 | 5.0 | 0.00 | 0.00 | 0.00 | 65 | 1013.0 |
| 20260905165315 | 93 | 150 | 0.0 | 5.0 | 0.00 | 0.00 | 0.00 | 67 | 1013.0 |
| 20260905164811 | 93 | 67 | 0.0 | 4.0 | 0.00 | 0.00 | 0.00 | 64 | 1013.2 |
| 20260905164304 | 92 | 165 | 0.0 | 4.0 | 0.00 | 0.00 | 0.00 | 67 | 1013.2 |
| 20260905163758 | 92 | 218 | 0.0 | 1.0 | 0.00 | 0.00 | 0.00 | 71 | 1013.3 |
| 20260905163252 | 92 | 218 | 0.0 | 1.0 | 0.00 | 0.00 | 0.00 | 66 | 1013.4 |
| 20260905162746 | 92 | 218 | 0.0 | 1.0 | 0.00 | 0.00 | 0.00 | 67 | 1013.4 |
| 20260905162239 | 92 | 246 | 0.0 | 1.0 | 0.00 | 0.00 | 0.00 | 67 | 1013.5 |
| 20260905161734 | 92 | 246 | 0.0 | 1.0 | 0.00 | 0.00 | 0.00 | 68 | 1013.5 |
| 20260905161229 | 92 | 196 | 0.0 | 0.0 | 0.00 | 0.00 | 0.00 | 68 | 1013.6 |
| 20260905160722 | 92 | 179 | 0.0 | 1.0 | 0.00 | 0.00 | 0.00 | 69 | 1013.6 |
| 20260905160447 | 92 | 178 | 0.0 | 1.0 | 0.00 | 0.00 | 0.00 | 71 | 1013.6 |
| 20260905155710 | 91 | 198 | 0.0 | 0.0 | 0.00 | 0.00 | 0.00 | 71 | 1013.6 |
| 20260905155203 | 91 | 198 | 0.0 | 0.0 | 0.00 | 0.00 | 0.00 | 71 | 1013.6 |
| 20260905154657 | 91 | 198 | 0.0 | 0.0 | 0.00 | 0.00 | 0.00 | 71 | 1013.7 |
| 20260905154152 | 90 | 198 | 0.0 | 2.0 | 0.00 | 0.00 | 0.00 | 72 | 1013.7 |
| 20260905153645 | 90 | 198 | 0.0 | 2.0 | 0.00 | 0.00 | 0.00 | 69 | 1013.7 |
| 20260905153140 | 90 | 198 | 0.0 | 0.0 | 0.00 | 0.00 | 0.00 | 70 | 1013.6 |